Regional Weather Roundup
Issued by NWS

Home | Current Version | Previous Version | Graphics & Text | Print | Product List | Glossary On
Versions: 1 2 3 4 5 6 7 8 9 10 11 12 13 14 15 16 17 18 19 20 21 22 23 24 25 26 27 28 29 30 31 32 33 34 35 36 37 38 39 40 41 42 43 44 45 46 47 48 49 50
000
ASUS43 KFSD 012202
RWRSD

WEATHER ROUNDUP FOR SOUTH DAKOTA
NATIONAL WEATHER SERVICE SIOUX FALLS SD
500 PM CDT SAT AUG 01 2015

NOTE: "FAIR" INDICATES FEW OR NO CLOUDS BELOW 12,000 FEET WITH NO
SIGNIFICANT WEATHER AND/OR OBSTRUCTIONS TO VISIBILITY.


SDZ001>005-009-010-012>017-012300-
NORTHWEST AND NORTH CENTRAL SOUTH DAKOTA

CITY           SKY/WX    TMP DP  RH WIND       PRES   REMARKS
BUFFALO          N/A     97  33  10 NW18      29.85F
FAITH            N/A     96  33  11 N17G25    29.90F
MOBRIDGE       SUNNY     95  51  22 NW15      29.79F
$$

SDZ012>016-024>037-041>051-057-063-072>074-012300-
SOUTHWEST AND SOUTH CENTRAL SOUTH DAKOTA

CITY           SKY/WX    TMP DP  RH WIND       PRES   REMARKS
RAPID CTY ARPT SUNNY     91  52  26 VRB5      29.95F
PIERRE         SUNNY     93  60  33 SW17G28   29.82F
CUSTER         MOSUNNY   80  52  37 NE7       30.14F
PHILIP         SUNNY     91  63  39 SW17G24   29.89F
PINE RIDGE     SUNNY     88  63  43 SE15      29.98F
WINNER         FAIR      92  58  31 SW20G28   29.90F
$$

SDZ004>011-016>023-039-040-012300-
NORTHEAST SOUTH DAKOTA

CITY           SKY/WX    TMP DP  RH WIND       PRES   REMARKS
ABERDEEN       SUNNY     92  63  38 W15       29.77F
WATERTOWN      SUNNY     86  59  39 SW21      29.84F
BROOKINGS      SUNNY     84  63  48 SW17      29.89S
SISSETON         N/A     89  64  43 W17G25    29.77F
$$

SDZ017-020-022-023-036>040-048>070-012300-
SOUTHEAST SOUTH DAKOTA

CITY           SKY/WX    TMP DP  RH WIND       PRES   REMARKS
SIOUX FALLS    MOSUNNY   83  62  49 SW10      29.89F
HURON          SUNNY     88  62  41 SW13G18   29.82F
CHAMBERLAIN    SUNNY     89  60  37 W18G26    29.87F
MITCHELL       SUNNY     86  61  42 SW10G21   29.86F
YANKTON        SUNNY     88  57  35 SW14G21   29.87F
$$

ABBREVIATIONS USED IN REMARKS
   TC - TEMPERATURE IN CELSIUS
  WCI - WIND CHILL INDEX
   HX - HEAT INDEX
  VSB - VISIBILITY



USA.gov is the U.S. government's official web portal to all federal, state and local government web resources and services.